Date String (YYYY-MM-DD hh:mm:ss) UTC,Instrument flags,Ambient pressure (hPa),Sample flow (lpm),Bypass flow (lpm),Sample temperature (°C),Ambient temperature (°C),ASC tube jacket temperature (°C),LED temperature (°C),Box temperature (°C),Sample RH (%),Span deviation,Mass concentration (μg/m³),Mass concentration (μg/m³),Mass concentration (μg/m³)
DateTimeUTC,F1_M11,P_M11,Q1_M11,Q2_M11,T1_M11,T2_M11,T3_M11,T4_M11,T5_M11,U1_M11,ZSPAN_M11,X0_M11,X2_M11,X1_M11
2021-08-26 05:00:00,,0830.9,5.01,0.00,29.3,27.7,00.0,38.5,31.1,28.8,0001.7,0019.90,0009.56,0008.02
2021-08-26 05:01:00,,0830.9,5.00,0.00,29.3,27.9,00.0,38.5,31.2,28.8,0001.4,0020.36,0009.53,0008.01
2021-08-26 05:02:00,,0830.9,4.99,0.00,29.4,28.1,00.0,38.5,31.2,28.7,0001.3,0020.45,0009.50,0008.02
2021-08-26 05:03:00,,0830.9,5.00,0.00,29.4,28.2,00.0,38.5,31.2,28.6,0001.8,0020.60,0009.51,0008.02
2021-08-26 05:04:00,,0830.9,5.01,0.00,29.4,28.3,00.0,38.5,31.3,28.6,0001.8,0020.67,0009.53,0008.01
2021-08-26 05:05:00,,0830.9,4.99,0.00,29.4,28.4,00.0,38.5,31.3,28.6,0001.8,0020.30,0009.51,0007.99
2021-08-26 05:06:00,,0830.9,5.00,0.00,29.5,28.5,00.0,38.5,31.3,28.7,0001.7,0020.03,0009.47,0008.00
2021-08-26 05:07:00,,0830.9,5.00,0.00,29.5,28.5,00.0,38.5,31.4,28.5,0001.7,0019.76,0009.46,0008.02
2021-08-26 05:08:00,,0830.9,5.01,0.00,29.5,28.6,00.0,38.5,31.4,28.6,0001.8,0020.32,0009.44,0008.01
2021-08-26 05:09:00,,0830.9,5.00,0.00,29.6,28.7,00.0,38.6,31.4,28.6,0001.7,0020.41,0009.40,0008.02
2021-08-26 05:10:00,,0830.9,5.00,0.00,29.6,28.7,00.0,38.6,31.4,28.6,0001.8,0020.40,0009.40,0008.02
2021-08-26 05:11:00,,0830.9,4.99,0.00,29.6,28.8,00.0,38.6,31.5,28.5,0001.9,0020.73,0009.41,0008.01
2021-08-26 05:12:00,,0830.9,5.01,0.00,29.7,28.8,00.0,38.6,31.5,28.7,0001.9,0020.13,0009.44,0008.01
2021-08-26 05:13:00,,0830.9,5.00,0.00,29.7,28.3,00.0,38.6,31.4,28.6,0001.7,0020.71,0009.54,0008.02
2021-08-26 05:14:00,,0830.9,4.99,0.00,29.5,26.6,00.0,38.6,30.9,28.7,0001.4,0021.00,0009.56,0008.03
2021-08-26 05:15:00,,0831.0,5.00,0.00,29.4,26.1,00.0,38.6,30.8,28.9,0001.4,0021.87,0009.58,0008.04
2021-08-26 05:16:00,,0830.9,4.99,0.00,29.3,26.4,00.0,38.6,30.8,29.2,0001.4,0021.88,0009.65,0008.04
2021-08-26 05:17:00,,0831.0,5.00,0.00,29.3,26.8,00.0,38.5,30.9,29.0,0001.5,0021.37,0009.64,0008.03
2021-08-26 05:18:00,,0831.0,5.00,0.00,29.3,27.2,00.0,38.5,31.0,29.2,0001.5,0021.03,0009.62,0008.00
2021-08-26 05:19:00,,0831.1,5.00,0.00,29.3,27.5,00.0,38.5,31.0,29.1,0001.4,0021.18,0009.63,0007.99
2021-08-26 05:20:00,,0831.0,5.00,0.00,29.3,27.7,00.0,38.5,31.1,29.2,0001.3,0021.08,0009.64,0007.98
2021-08-26 05:21:00,,0831.0,5.00,0.00,29.4,27.9,00.0,38.5,31.1,29.2,0001.3,0020.67,0009.63,0007.97
2021-08-26 05:22:00,,0831.0,5.02,0.00,29.4,28.1,00.0,38.5,31.2,29.0,0001.3,0020.55,0009.66,0007.97
2021-08-26 05:23:00,,0831.0,4.99,0.00,29.4,28.2,00.0,38.5,31.2,29.1,0001.3,0021.12,0009.70,0007.98
2021-08-26 05:24:00,,0831.0,5.00,0.00,29.4,28.3,00.0,38.5,31.3,29.0,0001.6,0020.47,0009.65,0007.96
2021-08-26 05:25:00,,0830.9,5.00,0.00,29.5,28.4,00.0,38.5,31.3,28.9,0001.7,0020.46,0009.60,0007.94
2021-08-26 05:26:00,,0830.9,5.00,0.00,29.5,28.5,00.0,38.5,31.3,28.8,0001.8,0019.67,0009.58,0007.92
2021-08-26 05:27:00,,0830.9,4.99,0.00,29.5,28.6,00.0,38.5,31.4,28.9,0001.9,0019.72,0009.54,0007.92
2021-08-26 05:28:00,,0830.9,5.01,0.00,29.5,28.6,00.0,38.6,31.4,29.0,0001.8,0019.98,0009.58,0007.93
2021-08-26 05:29:00,,0830.9,4.99,0.00,29.6,28.7,00.0,38.6,31.4,29.1,0001.7,0020.14,0009.62,0007.93
2021-08-26 05:30:00,,0830.9,4.99,0.00,29.6,28.7,00.0,38.6,31.5,29.0,0002.0,0020.02,0009.57,0007.92
2021-08-26 05:31:00,,0830.9,5.01,0.00,29.6,28.8,00.0,38.6,31.5,29.1,0002.2,0020.02,0009.58,0007.92
2021-08-26 05:32:00,,0830.9,5.01,0.00,29.7,28.8,00.0,38.6,31.5,29.1,0002.1,0020.44,0009.59,0007.93
2021-08-26 05:33:00,,0830.9,4.99,0.00,29.7,28.8,00.0,38.7,31.5,29.0,0002.0,0020.65,0009.55,0007.92
2021-08-26 05:34:00,,0830.9,5.00,0.00,29.7,28.8,00.0,38.7,31.5,28.9,0002.0,0020.29,0009.54,0007.92
2021-08-26 05:35:00,,0830.9,5.00,0.00,29.6,27.2,00.0,38.6,31.0,28.9,0001.8,0020.76,0009.56,0007.91
2021-08-26 05:36:00,,0830.9,5.01,0.00,29.5,26.2,00.0,38.6,30.7,29.3,0001.8,0021.68,0009.53,0007.92
2021-08-26 05:37:00,,0831.0,4.99,0.00,29.4,26.3,00.0,38.6,30.7,29.4,0001.5,0021.92,0009.53,0007.92
2021-08-26 05:38:00,,0830.9,4.99,0.00,29.3,26.7,00.0,38.6,30.8,29.6,0001.4,0021.73,0009.54,0007.93
2021-08-26 05:39:00,,0830.9,5.00,0.00,29.3,27.1,00.0,38.5,30.9,29.6,0001.5,0021.81,0009.48,0007.92
2021-08-26 05:40:00,,0830.9,5.02,0.00,29.3,27.4,00.0,38.5,31.0,29.7,0001.6,0022.01,0009.47,0007.93
2021-08-26 05:41:00,,0830.8,4.99,0.00,29.3,27.7,00.0,38.5,31.1,29.8,0001.1,0021.46,0009.50,0007.94
2021-08-26 05:42:00,,0830.8,5.01,0.00,29.4,27.9,00.0,38.5,31.2,29.8,0001.1,0021.37,0009.49,0007.94
2021-08-26 05:43:00,,0830.7,4.98,0.00,29.4,28.0,00.0,38.5,31.2,29.9,0001.2,0020.87,0009.51,0007.93
2021-08-26 05:44:00,,0830.7,5.00,0.00,29.4,28.2,00.0,38.5,31.2,30.1,0001.2,0022.83,0009.49,0007.92
2021-08-26 05:45:00,,0830.8,5.00,0.00,29.4,28.3,00.0,38.5,31.3,29.8,0000.9,0024.02,0009.46,0007.91
2021-08-26 05:46:00,,0830.8,5.01,0.00,29.5,28.4,00.0,38.5,31.3,29.9,0000.7,0023.56,0009.40,0007.90
2021-08-26 05:47:00,,0830.8,5.01,0.00,29.5,28.5,00.0,38.5,31.4,29.8,0000.5,0022.55,0009.44,0007.90
2021-08-26 05:48:00,,0830.8,4.99,0.00,29.5,28.5,00.0,38.6,31.4,29.9,0000.6,0022.34,0009.50,0007.91
2021-08-26 05:49:00,,0830.7,4.99,0.00,29.6,28.6,00.0,38.6,31.4,29.8,0000.8,0022.66,0009.51,0007.92
2021-08-26 05:50:00,,0830.7,5.00,0.00,29.6,28.7,00.0,38.6,31.4,29.8,0000.7,0022.98,0009.56,0007.93
2021-08-26 05:51:00,,0830.7,5.00,0.00,29.6,28.7,00.0,38.6,31.5,29.9,0000.7,0023.32,0009.62,0007.95
2021-08-26 05:52:00,,0830.7,4.99,0.00,29.6,28.8,00.0,38.6,31.5,30.0,0001.0,0023.09,0009.66,0007.98
2021-08-26 05:53:00,,0830.6,5.01,0.00,29.7,28.9,00.0,38.6,31.5,29.8,0001.0,0024.00,0009.77,0008.01
2021-08-26 05:54:00,,0830.7,5.00,0.00,29.7,28.9,00.0,38.7,31.6,29.8,0000.8,0025.88,0009.78,0008.01
2021-08-26 05:55:00,,0830.7,5.00,0.00,29.7,28.9,00.0,38.7,31.6,29.9,0000.9,0024.85,0009.87,0008.04
2021-08-26 05:56:00,,0830.7,5.01,0.00,29.7,27.9,00.0,38.7,31.3,29.9,0001.1,0024.88,0009.90,0008.06
2021-08-26 05:57:00,,0830.7,5.01,0.00,29.6,26.3,00.0,38.7,30.9,30.2,0001.6,0024.71,0009.98,0008.10
2021-08-26 05:58:00,,0830.7,5.00,0.00,29.5,26.2,00.0,38.6,30.8,30.3,0002.0,0024.99,0010.00,0008.12
2021-08-26 05:59:00,,0830.7,5.00,0.00,29.4,26.6,00.0,38.6,30.9,30.2,0002.1,0025.99,0010.00,0008.13
